Location: Baix
(44.7118°N, 4.7648°E)
Time: 01:39:47
(UTC+00:00)

Cosmos 1766 - Pass Details

Date: 07 August 2020
Orbit: 522 x 543 km, 82.5° (Epoch: 19 September)

Event Time Altitude Azimuth Distance (km) Brightness Sun altitude
Exits shadow 02:26:44 32° 278° (W) 921 4.1 -19.0°
Maximum altitude 02:26:56 33° 284° (WNW) 917 4.2 -18.9°
Drops below altitude 10° 02:30:30 10° 350° (N) 1,782 6.4 -18.5°
Sets 02:32:49 0° 0° (N) 2,673 7.6 -18.2°
